Location: Newark
(42.8481°N, 0.4872°E)
Time: 22:55:06
(UTC+00:00)

SR - Pass Details

Date: 04 November 2020
Orbit: 579 x 876 km, 66.7° (Epoch: 29 November)

Event Time Altitude Azimuth Distance (km) Brightness Sun altitude
Rises 23:15:01 0° 176° (S) 2,779 - -62.3°
Reaches altitude 10° 23:17:33 10° 162° (SSE) 1,887 - -62.4°
Maximum altitude 23:20:52 23° 109° (ESE) 1,271 - -62.5°
Drops below altitude 10° 23:24:16 10° 57° (ENE) 1,946 - -62.6°
Sets 23:26:56 0° 43° (NE) 2,890 - -62.7°
